Year,Month,Day,Hour,Minute,Value (Times are PST for temperature in C)
2013,09,10,00,00,13.60
2013,09,10,00,01,13.50
2013,09,10,00,02,13.50
2013,09,10,00,03,13.50
2013,09,10,00,04,13.50
2013,09,10,00,05,13.50
2013,09,10,00,06,13.40
2013,09,10,00,07,13.40
2013,09,10,00,08,13.40
2013,09,10,00,09,13.40
2013,09,10,00,10,13.40
2013,09,10,00,11,13.40
2013,09,10,00,12,13.40
2013,09,10,00,13,13.40
2013,09,10,00,14,13.40
2013,09,10,00,15,13.40
2013,09,10,00,16,13.40
2013,09,10,00,17,13.40
2013,09,10,00,18,13.30
2013,09,10,00,19,13.30
2013,09,10,00,20,13.30
2013,09,10,00,21,13.30
2013,09,10,00,22,13.30
2013,09,10,00,23,13.30
2013,09,10,00,24,13.20
2013,09,10,00,25,13.20
2013,09,10,00,26,13.20
2013,09,10,00,27,13.20
2013,09,10,00,28,13.10
2013,09,10,00,29,13.10
2013,09,10,00,30,13.10
2013,09,10,00,31,13.10
2013,09,10,00,32,13.00
2013,09,10,00,33,13.00
2013,09,10,00,34,13.00
2013,09,10,00,35,13.00
2013,09,10,00,36,12.90
2013,09,10,00,37,12.90
2013,09,10,00,38,12.90
2013,09,10,00,39,12.90
2013,09,10,00,40,12.90
2013,09,10,00,41,12.90
2013,09,10,00,42,12.90
2013,09,10,00,43,12.90
2013,09,10,00,44,12.90
2013,09,10,00,45,12.90
2013,09,10,00,46,12.90
2013,09,10,00,47,12.90
2013,09,10,00,48,12.80
2013,09,10,00,49,12.80
2013,09,10,00,50,12.80
2013,09,10,00,51,12.80
2013,09,10,00,52,12.80
2013,09,10,00,53,12.80
2013,09,10,00,54,12.80
2013,09,10,00,55,12.80
2013,09,10,00,56,12.80
2013,09,10,00,57,12.80
2013,09,10,00,58,12.80
2013,09,10,00,59,12.80
2013,09,10,01,00,12.80
2013,09,10,01,01,12.80
2013,09,10,01,02,12.80
2013,09,10,01,03,12.80
2013,09,10,01,04,12.90
2013,09,10,01,05,12.90
2013,09,10,01,06,12.90
2013,09,10,01,07,12.80
2013,09,10,01,08,12.80
2013,09,10,01,09,12.80
2013,09,10,01,10,12.80
2013,09,10,01,11,12.80
2013,09,10,01,12,12.80
2013,09,10,01,13,12.70
2013,09,10,01,14,12.70
2013,09,10,01,15,12.70
2013,09,10,01,16,12.70
2013,09,10,01,17,12.70
2013,09,10,01,18,12.70
2013,09,10,01,19,12.70
2013,09,10,01,20,12.70
2013,09,10,01,21,12.70
2013,09,10,01,22,12.70
2013,09,10,01,23,12.70
2013,09,10,01,24,12.60
2013,09,10,01,25,12.60
2013,09,10,01,26,12.60
2013,09,10,01,27,12.60
2013,09,10,01,28,12.60
2013,09,10,01,29,12.60
2013,09,10,01,30,12.60
2013,09,10,01,31,12.60
2013,09,10,01,32,12.60
2013,09,10,01,33,12.60
2013,09,10,01,34,12.60
2013,09,10,01,35,12.60
2013,09,10,01,36,12.60
2013,09,10,01,37,12.60
2013,09,10,01,38,12.60
2013,09,10,01,39,12.60
2013,09,10,01,40,12.60
2013,09,10,01,41,12.60
2013,09,10,01,42,12.60
2013,09,10,01,43,12.60
2013,09,10,01,44,12.60
2013,09,10,01,45,12.60
2013,09,10,01,46,12.60
2013,09,10,01,47,12.60
2013,09,10,01,48,12.60
2013,09,10,01,49,12.60
2013,09,10,01,50,12.60
2013,09,10,01,51,12.60
2013,09,10,01,52,12.60
2013,09,10,01,53,12.60
2013,09,10,01,54,12.60
2013,09,10,01,55,12.60
2013,09,10,01,56,12.60
2013,09,10,01,57,12.60
2013,09,10,01,58,12.70
2013,09,10,01,59,12.70
2013,09,10,02,00,12.70
2013,09,10,02,01,12.70
2013,09,10,02,02,12.70
2013,09,10,02,03,12.70
2013,09,10,02,04,12.70
2013,09,10,02,05,12.70
2013,09,10,02,06,12.70
2013,09,10,02,07,12.70
2013,09,10,02,08,12.70
2013,09,10,02,09,12.70
2013,09,10,02,10,12.70
2013,09,10,02,11,12.70
2013,09,10,02,12,12.70
2013,09,10,02,13,12.70
2013,09,10,02,14,12.70
2013,09,10,02,15,12.70
2013,09,10,02,16,12.70
2013,09,10,02,17,12.70
2013,09,10,02,18,12.70
2013,09,10,02,19,12.70
2013,09,10,02,20,12.70
2013,09,10,02,21,12.70
2013,09,10,02,22,12.70
2013,09,10,02,23,12.60
2013,09,10,02,24,12.70
2013,09,10,02,25,12.70
2013,09,10,02,26,12.70
2013,09,10,02,27,12.70
2013,09,10,02,28,12.70
2013,09,10,02,29,12.70
2013,09,10,02,30,12.60
2013,09,10,02,31,12.60
2013,09,10,02,32,12.60
2013,09,10,02,33,12.60
2013,09,10,02,34,12.60
2013,09,10,02,35,12.60
2013,09,10,02,36,12.60
2013,09,10,02,37,12.60
2013,09,10,02,38,12.60
2013,09,10,02,39,12.60
2013,09,10,02,40,12.60
2013,09,10,02,41,12.60
2013,09,10,02,42,12.60
2013,09,10,02,43,12.60
2013,09,10,02,44,12.60
2013,09,10,02,45,12.60
2013,09,10,02,46,12.50
2013,09,10,02,47,12.50
2013,09,10,02,48,12.50
2013,09,10,02,49,12.50
2013,09,10,02,50,12.50
2013,09,10,02,51,12.40
2013,09,10,02,52,12.40
2013,09,10,02,53,12.40
2013,09,10,02,54,12.40
2013,09,10,02,55,12.40
2013,09,10,02,56,12.30
2013,09,10,02,57,12.30
2013,09,10,02,58,12.30
2013,09,10,02,59,12.30
2013,09,10,03,00,12.30
2013,09,10,03,01,12.30
2013,09,10,03,02,12.30
2013,09,10,03,03,12.20
2013,09,10,03,04,12.20
2013,09,10,03,05,12.20
2013,09,10,03,06,12.20
2013,09,10,03,07,12.20
2013,09,10,03,08,12.20
2013,09,10,03,09,12.20
2013,09,10,03,10,12.20
2013,09,10,03,11,12.20
2013,09,10,03,12,12.20
2013,09,10,03,13,12.20
2013,09,10,03,14,12.20
2013,09,10,03,15,12.20
2013,09,10,03,16,12.10
2013,09,10,03,17,12.10
2013,09,10,03,18,12.10
2013,09,10,03,19,12.10
2013,09,10,03,20,12.10
2013,09,10,03,21,12.10
2013,09,10,03,22,12.10
2013,09,10,03,23,12.10
2013,09,10,03,24,12.10
2013,09,10,03,25,12.10
2013,09,10,03,26,12.10
2013,09,10,03,27,12.10
2013,09,10,03,28,12.10
2013,09,10,03,29,12.10
2013,09,10,03,30,12.10
2013,09,10,03,31,12.10
2013,09,10,03,32,12.10
2013,09,10,03,33,12.10
2013,09,10,03,34,12.10
2013,09,10,03,35,12.10
2013,09,10,03,36,12.10
2013,09,10,03,37,12.10
2013,09,10,03,38,12.10
2013,09,10,03,39,12.10
2013,09,10,03,40,12.10
2013,09,10,03,41,12.10
2013,09,10,03,42,12.10
2013,09,10,03,43,12.10
2013,09,10,03,44,12.10
2013,09,10,03,45,12.10
2013,09,10,03,46,12.10
2013,09,10,03,47,12.10
2013,09,10,03,48,12.10
2013,09,10,03,49,12.10
2013,09,10,03,50,12.10
2013,09,10,03,51,12.10
2013,09,10,03,52,12.10
2013,09,10,03,53,12.10
2013,09,10,03,54,12.10
2013,09,10,03,55,12.00
2013,09,10,03,56,12.10
2013,09,10,03,57,12.10
2013,09,10,03,58,12.10
2013,09,10,03,59,12.00
2013,09,10,04,00,12.00
2013,09,10,04,01,12.00
2013,09,10,04,02,12.00
2013,09,10,04,03,12.00
2013,09,10,04,04,12.00
2013,09,10,04,05,12.00
2013,09,10,04,06,12.00
2013,09,10,04,07,12.00
2013,09,10,04,08,12.00
2013,09,10,04,09,12.00
2013,09,10,04,10,12.00
2013,09,10,04,11,12.00
2013,09,10,04,12,12.00
2013,09,10,04,13,12.00
2013,09,10,04,14,11.90
2013,09,10,04,15,11.90
2013,09,10,04,16,11.90
2013,09,10,04,17,11.90
2013,09,10,04,18,11.90
2013,09,10,04,19,11.90
2013,09,10,04,20,11.80
2013,09,10,04,21,11.80
2013,09,10,04,22,11.80
2013,09,10,04,23,11.80
2013,09,10,04,24,11.80
2013,09,10,04,25,11.80
2013,09,10,04,26,11.80
2013,09,10,04,27,11.80
2013,09,10,04,28,11.80
2013,09,10,04,29,11.80
2013,09,10,04,30,11.80
2013,09,10,04,31,11.80
2013,09,10,04,32,11.80
2013,09,10,04,33,11.70
2013,09,10,04,34,11.70
2013,09,10,04,35,11.70
2013,09,10,04,36,11.60
2013,09,10,04,37,11.60
2013,09,10,04,38,11.60
2013,09,10,04,39,11.50
2013,09,10,04,40,11.50
2013,09,10,04,41,11.40
2013,09,10,04,42,11.40
2013,09,10,04,43,11.40
2013,09,10,04,44,11.40
2013,09,10,04,45,11.40
2013,09,10,04,46,11.40
2013,09,10,04,47,11.40
2013,09,10,04,48,11.40
2013,09,10,04,49,11.40
2013,09,10,04,50,11.40
2013,09,10,04,51,11.40
2013,09,10,04,52,11.40
2013,09,10,04,53,11.40
2013,09,10,04,54,11.40
2013,09,10,04,55,11.40
2013,09,10,04,56,11.40
2013,09,10,04,57,11.40
2013,09,10,04,58,11.40
2013,09,10,04,59,11.40
2013,09,10,05,00,11.30
2013,09,10,05,01,11.30
2013,09,10,05,02,11.30
2013,09,10,05,03,11.30
2013,09,10,05,04,11.30
2013,09,10,05,05,11.30
2013,09,10,05,06,11.30
2013,09,10,05,07,11.30
2013,09,10,05,08,11.30
2013,09,10,05,09,11.30
2013,09,10,05,10,11.40
2013,09,10,05,11,11.40
2013,09,10,05,12,11.40
2013,09,10,05,13,11.40
2013,09,10,05,14,11.40
2013,09,10,05,15,11.40
2013,09,10,05,16,11.40
2013,09,10,05,17,11.40
2013,09,10,05,18,11.40
2013,09,10,05,19,11.40
2013,09,10,05,20,11.40
2013,09,10,05,21,11.40
2013,09,10,05,22,11.40
2013,09,10,05,23,11.40
2013,09,10,05,24,11.40
2013,09,10,05,25,11.40
2013,09,10,05,26,11.40
2013,09,10,05,27,11.40
2013,09,10,05,28,11.40
2013,09,10,05,29,11.40
2013,09,10,05,30,11.40
2013,09,10,05,31,11.40
2013,09,10,05,32,11.40
2013,09,10,05,33,11.40
2013,09,10,05,34,11.40
2013,09,10,05,35,11.40
2013,09,10,05,36,11.40
2013,09,10,05,37,11.40
2013,09,10,05,38,11.40
2013,09,10,05,39,11.40
2013,09,10,05,40,11.40
2013,09,10,05,41,11.40
2013,09,10,05,42,11.40
2013,09,10,05,43,11.40
2013,09,10,05,44,11.50
2013,09,10,05,45,11.50
2013,09,10,05,46,11.50
2013,09,10,05,47,11.50
2013,09,10,05,48,11.40
2013,09,10,05,49,11.40
2013,09,10,05,50,11.30
2013,09,10,05,51,11.30
2013,09,10,05,52,11.20
2013,09,10,05,53,11.20
2013,09,10,05,54,11.20
2013,09,10,05,55,11.10
2013,09,10,05,56,11.10
2013,09,10,05,57,11.10
2013,09,10,05,58,11.00
2013,09,10,05,59,11.00
2013,09,10,06,00,10.90
2013,09,10,06,01,10.90
2013,09,10,06,02,10.90
2013,09,10,06,03,10.90
2013,09,10,06,04,10.90
2013,09,10,06,05,11.00
2013,09,10,06,06,11.00
2013,09,10,06,07,11.00
2013,09,10,06,08,11.00
2013,09,10,06,09,11.10
2013,09,10,06,10,11.10
2013,09,10,06,11,11.10
2013,09,10,06,12,11.10
2013,09,10,06,13,11.10
2013,09,10,06,14,11.10
2013,09,10,06,15,11.10
2013,09,10,06,16,11.10
2013,09,10,06,17,11.10
2013,09,10,06,18,11.10
2013,09,10,06,19,11.10
2013,09,10,06,20,11.10
2013,09,10,06,21,11.10
2013,09,10,06,22,11.10
2013,09,10,06,23,11.10
2013,09,10,06,24,11.10
2013,09,10,06,25,11.10
2013,09,10,06,26,11.20
2013,09,10,06,27,11.20
2013,09,10,06,28,11.20
2013,09,10,06,29,11.20
2013,09,10,06,30,11.20
2013,09,10,06,31,11.20
2013,09,10,06,32,11.20
2013,09,10,06,33,11.20
2013,09,10,06,34,11.20
2013,09,10,06,35,11.20
2013,09,10,06,36,11.20
2013,09,10,06,37,11.20
2013,09,10,06,38,11.20
2013,09,10,06,39,11.20
2013,09,10,06,40,11.20
2013,09,10,06,41,11.20
2013,09,10,06,42,11.20
2013,09,10,06,43,11.20
2013,09,10,06,44,11.20
2013,09,10,06,45,11.20
2013,09,10,06,46,11.20
2013,09,10,06,47,11.20
2013,09,10,06,48,11.20
2013,09,10,06,49,11.20
2013,09,10,06,50,11.30
2013,09,10,06,51,11.30
2013,09,10,06,52,11.30
2013,09,10,06,53,11.30
2013,09,10,06,54,11.30
2013,09,10,06,55,11.40
2013,09,10,06,56,11.40
2013,09,10,06,57,11.40
2013,09,10,06,58,11.40
2013,09,10,06,59,11.40
2013,09,10,07,00,11.40
2013,09,10,07,01,11.40
2013,09,10,07,02,11.40
2013,09,10,07,03,11.40
2013,09,10,07,04,11.40
2013,09,10,07,05,11.40
2013,09,10,07,06,11.30
2013,09,10,07,07,11.30
2013,09,10,07,08,11.20
2013,09,10,07,09,11.20
2013,09,10,07,10,11.10
2013,09,10,07,11,11.10
2013,09,10,07,12,11.10
2013,09,10,07,13,11.10
2013,09,10,07,14,11.00
2013,09,10,07,15,11.00
2013,09,10,07,16,11.00
2013,09,10,07,17,11.00
2013,09,10,07,18,11.00
2013,09,10,07,19,11.00
2013,09,10,07,20,11.00
2013,09,10,07,21,11.10
2013,09,10,07,22,11.10
2013,09,10,07,23,11.10
2013,09,10,07,24,11.10
2013,09,10,07,25,11.10
2013,09,10,07,26,11.10
2013,09,10,07,27,11.10
2013,09,10,07,28,11.10
2013,09,10,07,29,11.20
2013,09,10,07,30,11.20
2013,09,10,07,31,11.20
2013,09,10,07,32,11.20
2013,09,10,07,33,11.20
2013,09,10,07,34,11.20
2013,09,10,07,35,11.20
2013,09,10,07,36,11.20
2013,09,10,07,37,11.20
2013,09,10,07,38,11.20
2013,09,10,07,39,11.20
2013,09,10,07,40,11.20
2013,09,10,07,41,11.20
2013,09,10,07,42,11.20
2013,09,10,07,43,11.20
2013,09,10,07,44,11.30
2013,09,10,07,45,11.30
2013,09,10,07,46,11.30
2013,09,10,07,47,11.30
2013,09,10,07,48,11.30
2013,09,10,07,49,11.40
2013,09,10,07,50,11.40
2013,09,10,07,51,11.40
2013,09,10,07,52,11.50
2013,09,10,07,53,11.50
2013,09,10,07,54,11.60
2013,09,10,07,55,11.60
2013,09,10,07,56,11.60
2013,09,10,07,57,11.70
2013,09,10,07,58,11.70
2013,09,10,07,59,11.80
2013,09,10,08,00,11.80
2013,09,10,08,01,11.90
2013,09,10,08,02,11.90
2013,09,10,08,03,11.90
2013,09,10,08,04,12.00
2013,09,10,08,05,12.00
2013,09,10,08,06,12.10
2013,09,10,08,07,12.10
2013,09,10,08,08,12.10
2013,09,10,08,09,12.20
2013,09,10,08,10,12.20
2013,09,10,08,11,12.20
2013,09,10,08,12,12.20
2013,09,10,08,13,12.20
2013,09,10,08,14,12.30
2013,09,10,08,15,12.30
2013,09,10,08,16,12.30
2013,09,10,08,17,12.30
2013,09,10,08,18,12.30
2013,09,10,08,19,12.30
2013,09,10,08,20,12.30
2013,09,10,08,21,12.30
2013,09,10,08,22,12.30
2013,09,10,08,23,12.30
2013,09,10,08,24,12.30
2013,09,10,08,25,12.30
2013,09,10,08,26,12.30
2013,09,10,08,27,12.30
2013,09,10,08,28,12.40
2013,09,10,08,29,12.40
2013,09,10,08,30,12.40
2013,09,10,08,31,12.50
2013,09,10,08,32,12.50
2013,09,10,08,33,12.60
2013,09,10,08,34,12.60
2013,09,10,08,35,12.70
2013,09,10,08,36,12.70
2013,09,10,08,37,12.70
2013,09,10,08,38,12.70
2013,09,10,08,39,12.70
2013,09,10,08,40,12.70
2013,09,10,08,41,12.80
2013,09,10,08,42,12.80
2013,09,10,08,43,12.80
2013,09,10,08,44,12.80
2013,09,10,08,45,12.90
2013,09,10,08,46,12.90
2013,09,10,08,47,12.90
2013,09,10,08,48,12.90
2013,09,10,08,49,13.00
2013,09,10,08,50,13.00
2013,09,10,08,51,13.00
2013,09,10,08,52,13.10
2013,09,10,08,53,13.20
2013,09,10,08,54,13.20
2013,09,10,08,55,13.30
2013,09,10,08,56,13.30
2013,09,10,08,57,13.40
2013,09,10,08,58,13.40
2013,09,10,08,59,13.40
2013,09,10,09,00,13.50
2013,09,10,09,01,13.50
2013,09,10,09,02,13.60
2013,09,10,09,03,13.70
2013,09,10,09,04,13.80
2013,09,10,09,05,13.80
2013,09,10,09,06,13.90
2013,09,10,09,07,13.90
2013,09,10,09,08,14.00
2013,09,10,09,09,14.10
2013,09,10,09,10,14.20
2013,09,10,09,11,14.20
2013,09,10,09,12,14.30
2013,09,10,09,13,14.30
2013,09,10,09,14,14.40
2013,09,10,09,15,14.40
2013,09,10,09,16,14.40
2013,09,10,09,17,14.40
2013,09,10,09,18,14.40
2013,09,10,09,19,14.40
2013,09,10,09,20,14.50
2013,09,10,09,21,14.50
2013,09,10,09,22,14.60
2013,09,10,09,23,14.60
2013,09,10,09,24,14.60
2013,09,10,09,25,14.60
2013,09,10,09,26,14.70
2013,09,10,09,27,14.70
2013,09,10,09,28,14.70
2013,09,10,09,29,14.70
2013,09,10,09,30,14.80
2013,09,10,09,31,14.80
2013,09,10,09,32,14.80
2013,09,10,09,33,14.90
2013,09,10,09,34,14.90
2013,09,10,09,35,14.90
2013,09,10,09,36,14.90
2013,09,10,09,37,15.00
2013,09,10,09,38,15.00
2013,09,10,09,39,15.00
2013,09,10,09,40,15.00
2013,09,10,09,41,15.10
2013,09,10,09,42,15.10
2013,09,10,09,43,15.10
2013,09,10,09,44,15.20
2013,09,10,09,45,15.20
2013,09,10,09,46,15.20
2013,09,10,09,47,15.20
2013,09,10,09,48,15.20
2013,09,10,09,49,15.30
2013,09,10,09,50,15.30
2013,09,10,09,51,15.30
2013,09,10,09,52,15.30
2013,09,10,09,53,15.30
2013,09,10,09,54,15.40
2013,09,10,09,55,15.40
2013,09,10,09,56,15.40
2013,09,10,09,57,15.50
2013,09,10,09,58,15.50
2013,09,10,09,59,15.60
2013,09,10,10,00,15.60
2013,09,10,10,01,15.70
2013,09,10,10,02,15.70
2013,09,10,10,03,15.70
2013,09,10,10,04,15.70
2013,09,10,10,05,15.80
2013,09,10,10,06,15.80
2013,09,10,10,07,15.90
2013,09,10,10,08,15.90
2013,09,10,10,09,16.00
2013,09,10,10,10,16.00
2013,09,10,10,11,16.10
2013,09,10,10,12,16.10
2013,09,10,10,13,16.20
2013,09,10,10,14,16.20
2013,09,10,10,15,16.20
2013,09,10,10,16,16.20
2013,09,10,10,17,16.30
2013,09,10,10,18,16.30
2013,09,10,10,19,16.30
2013,09,10,10,20,16.40
2013,09,10,10,21,16.50
2013,09,10,10,22,16.60
2013,09,10,10,23,16.60
2013,09,10,10,24,16.70
2013,09,10,10,25,16.70
2013,09,10,10,26,16.70
2013,09,10,10,27,16.80
2013,09,10,10,28,16.80
2013,09,10,10,29,16.80
2013,09,10,10,30,16.90
2013,09,10,10,31,16.90
2013,09,10,10,32,17.00
2013,09,10,10,33,17.10
2013,09,10,10,34,17.20
2013,09,10,10,35,17.30
2013,09,10,10,36,17.30
2013,09,10,10,37,17.40
2013,09,10,10,38,17.40
2013,09,10,10,39,17.50
2013,09,10,10,40,17.50
2013,09,10,10,41,17.60
2013,09,10,10,42,17.60
2013,09,10,10,43,17.60
2013,09,10,10,44,17.60
2013,09,10,10,45,17.70
2013,09,10,10,46,17.70
2013,09,10,10,47,17.70
2013,09,10,10,48,17.70
2013,09,10,10,49,17.70
2013,09,10,10,50,17.80
2013,09,10,10,51,17.80
2013,09,10,10,52,17.80
2013,09,10,10,53,17.80
2013,09,10,10,54,17.90
2013,09,10,10,55,18.00
2013,09,10,10,56,18.00
2013,09,10,10,57,18.10
2013,09,10,10,58,18.10
2013,09,10,10,59,18.20
2013,09,10,11,00,18.20
2013,09,10,11,01,18.30
2013,09,10,11,02,18.30
2013,09,10,11,03,18.30
2013,09,10,11,04,18.40
2013,09,10,11,05,18.50
2013,09,10,11,06,18.60
2013,09,10,11,07,18.60
2013,09,10,11,08,18.60
2013,09,10,11,09,18.60
2013,09,10,11,10,18.60
2013,09,10,11,11,18.60
2013,09,10,11,12,18.70
2013,09,10,11,13,18.70
2013,09,10,11,14,18.70
2013,09,10,11,15,18.80
2013,09,10,11,16,18.80
2013,09,10,11,17,18.80
2013,09,10,11,18,18.80
2013,09,10,11,19,18.80
2013,09,10,11,20,18.80
2013,09,10,11,21,18.80
2013,09,10,11,22,18.80
2013,09,10,11,23,18.90
2013,09,10,11,24,18.90
2013,09,10,11,25,19.00
2013,09,10,11,26,19.10
2013,09,10,11,27,19.10
2013,09,10,11,28,19.20
2013,09,10,11,29,19.20
2013,09,10,11,30,19.30
2013,09,10,11,31,19.30
2013,09,10,11,32,19.30
2013,09,10,11,33,19.30
2013,09,10,11,34,19.30
2013,09,10,11,35,19.30
2013,09,10,11,36,19.30
2013,09,10,11,37,19.30
2013,09,10,11,38,19.30
2013,09,10,11,39,19.40
2013,09,10,11,40,19.40
2013,09,10,11,41,19.40
2013,09,10,11,42,19.50
2013,09,10,11,43,19.50
2013,09,10,11,44,19.60
2013,09,10,11,45,19.60
2013,09,10,11,46,19.70
2013,09,10,11,47,19.80
2013,09,10,11,48,19.90
2013,09,10,11,49,19.90
2013,09,10,11,50,20.00
2013,09,10,11,51,20.00
2013,09,10,11,52,19.90
2013,09,10,11,53,19.90
2013,09,10,11,54,19.90
2013,09,10,11,55,19.90
2013,09,10,11,56,19.90
2013,09,10,11,57,19.90
2013,09,10,11,58,19.90
2013,09,10,11,59,19.80
2013,09,10,12,00,19.80
2013,09,10,12,01,19.80
2013,09,10,12,02,19.80
2013,09,10,12,03,19.80
2013,09,10,12,04,19.90
2013,09,10,12,05,19.90
2013,09,10,12,06,19.90
2013,09,10,12,07,20.00
2013,09,10,12,08,20.00
2013,09,10,12,09,20.10
2013,09,10,12,10,20.10
2013,09,10,12,11,20.10
2013,09,10,12,12,20.20
2013,09,10,12,13,20.20
2013,09,10,12,14,20.20
2013,09,10,12,15,20.30
2013,09,10,12,16,20.30
2013,09,10,12,17,20.40
2013,09,10,12,18,20.40
2013,09,10,12,19,20.50
2013,09,10,12,20,20.50
2013,09,10,12,21,20.60
2013,09,10,12,22,20.70
2013,09,10,12,23,20.70
2013,09,10,12,24,20.70
2013,09,10,12,25,20.70
2013,09,10,12,26,20.70
2013,09,10,12,27,20.70
2013,09,10,12,28,20.70
2013,09,10,12,29,20.70
2013,09,10,12,30,20.80
2013,09,10,12,31,20.80
2013,09,10,12,32,20.80
2013,09,10,12,33,20.80
2013,09,10,12,34,20.80
2013,09,10,12,35,20.80
2013,09,10,12,36,20.80
2013,09,10,12,37,20.80
2013,09,10,12,38,20.80
2013,09,10,12,39,20.80
2013,09,10,12,40,20.80
2013,09,10,12,41,20.80
2013,09,10,12,42,20.90
2013,09,10,12,43,20.90
2013,09,10,12,44,20.90
2013,09,10,12,45,21.00
2013,09,10,12,46,21.00
2013,09,10,12,47,21.00
2013,09,10,12,48,21.10
2013,09,10,12,49,21.10
2013,09,10,12,50,21.10
2013,09,10,12,51,21.10
2013,09,10,12,52,21.10
2013,09,10,12,53,21.10
2013,09,10,12,54,21.10
2013,09,10,12,55,21.10
2013,09,10,12,56,21.20
2013,09,10,12,57,21.20
2013,09,10,12,58,21.20
2013,09,10,12,59,21.20
2013,09,10,13,00,21.20
2013,09,10,13,01,21.20
2013,09,10,13,02,21.20
2013,09,10,13,03,21.20
2013,09,10,13,04,21.30
2013,09,10,13,05,21.30
2013,09,10,13,06,21.30
2013,09,10,13,07,21.30
2013,09,10,13,08,21.30
2013,09,10,13,09,21.40
2013,09,10,13,10,21.50
2013,09,10,13,11,21.60
2013,09,10,13,12,21.60
2013,09,10,13,13,21.70
2013,09,10,13,14,21.80
2013,09,10,13,15,21.80
2013,09,10,13,16,21.90
2013,09,10,13,17,21.90
2013,09,10,13,18,21.90
2013,09,10,13,19,22.00
2013,09,10,13,20,22.00
2013,09,10,13,21,22.00
2013,09,10,13,22,22.00
2013,09,10,13,23,22.10
2013,09,10,13,24,22.10
2013,09,10,13,25,22.00
2013,09,10,13,26,22.00
2013,09,10,13,27,21.90
2013,09,10,13,28,21.90
2013,09,10,13,29,21.80
2013,09,10,13,30,21.80
2013,09,10,13,31,21.80
2013,09,10,13,32,21.80
2013,09,10,13,33,21.80
2013,09,10,13,34,21.90
2013,09,10,13,35,22.00
2013,09,10,13,36,22.00
2013,09,10,13,37,22.00
2013,09,10,13,38,21.90
2013,09,10,13,39,21.90
2013,09,10,13,40,21.90
2013,09,10,13,41,21.80
2013,09,10,13,42,21.70
2013,09,10,13,43,21.70
2013,09,10,13,44,21.70
2013,09,10,13,45,21.70
2013,09,10,13,46,21.60
2013,09,10,13,47,21.50
2013,09,10,13,48,21.40
2013,09,10,13,49,21.30
2013,09,10,13,50,21.30
2013,09,10,13,51,21.20
2013,09,10,13,52,21.20
2013,09,10,13,53,21.20
2013,09,10,13,54,21.20
2013,09,10,13,55,21.10
2013,09,10,13,56,21.00
2013,09,10,13,57,21.00
2013,09,10,13,58,20.90
2013,09,10,13,59,20.90
2013,09,10,14,00,20.80
2013,09,10,14,01,20.70
2013,09,10,14,02,20.70
2013,09,10,14,03,20.70
2013,09,10,14,04,20.60
2013,09,10,14,05,20.60
2013,09,10,14,06,20.70
2013,09,10,14,07,20.70
2013,09,10,14,08,20.60
2013,09,10,14,09,20.60
2013,09,10,14,10,20.50
2013,09,10,14,11,20.50
2013,09,10,14,12,20.50
2013,09,10,14,13,20.60
2013,09,10,14,14,20.60
2013,09,10,14,15,20.70
2013,09,10,14,16,20.70
2013,09,10,14,17,20.80
2013,09,10,14,18,20.90
2013,09,10,14,19,20.90
2013,09,10,14,20,20.90
2013,09,10,14,21,20.90
2013,09,10,14,22,20.90
2013,09,10,14,23,21.00
2013,09,10,14,24,21.10
2013,09,10,14,25,21.20
2013,09,10,14,26,21.30
2013,09,10,14,27,21.40
2013,09,10,14,28,21.40
2013,09,10,14,29,21.40
2013,09,10,14,30,21.40
2013,09,10,14,31,21.40
2013,09,10,14,32,21.40
2013,09,10,14,33,21.40
2013,09,10,14,34,21.50
2013,09,10,14,35,21.50
2013,09,10,14,36,21.40
2013,09,10,14,37,21.40
2013,09,10,14,38,21.40
2013,09,10,14,39,21.40
2013,09,10,14,40,21.40
2013,09,10,14,41,21.40
2013,09,10,14,42,21.40
2013,09,10,14,43,21.40
2013,09,10,14,44,21.40
2013,09,10,14,45,21.40
2013,09,10,14,46,21.40
2013,09,10,14,47,21.50
2013,09,10,14,48,21.60
2013,09,10,14,49,21.60
2013,09,10,14,50,21.70
2013,09,10,14,51,21.70
2013,09,10,14,52,21.70
2013,09,10,14,53,21.70
2013,09,10,14,54,21.80
2013,09,10,14,55,21.80
2013,09,10,14,56,21.80
2013,09,10,14,57,21.80
2013,09,10,14,58,21.80
2013,09,10,14,59,21.70
2013,09,10,15,00,21.70
2013,09,10,15,01,21.70
2013,09,10,15,02,21.60
2013,09,10,15,03,21.50
2013,09,10,15,04,21.40
2013,09,10,15,05,21.30
2013,09,10,15,06,21.30
2013,09,10,15,07,21.30
2013,09,10,15,08,21.20
2013,09,10,15,09,21.20
2013,09,10,15,10,21.30
2013,09,10,15,11,21.30
2013,09,10,15,12,21.20
2013,09,10,15,13,21.30
2013,09,10,15,14,21.30
2013,09,10,15,15,21.30
2013,09,10,15,16,21.30
2013,09,10,15,17,21.40
2013,09,10,15,18,21.40
2013,09,10,15,19,21.40
2013,09,10,15,20,21.40
2013,09,10,15,21,21.50
2013,09,10,15,22,21.50
2013,09,10,15,23,21.50
2013,09,10,15,24,21.50
2013,09,10,15,25,21.50
2013,09,10,15,26,21.40
2013,09,10,15,27,21.30
2013,09,10,15,28,21.20
2013,09,10,15,29,21.10
2013,09,10,15,30,21.00
2013,09,10,15,31,21.00
2013,09,10,15,32,20.90
2013,09,10,15,33,20.90
2013,09,10,15,34,21.00
2013,09,10,15,35,21.00
2013,09,10,15,36,21.00
2013,09,10,15,37,21.00
2013,09,10,15,38,21.00
2013,09,10,15,39,20.90
2013,09,10,15,40,20.90
2013,09,10,15,41,20.90
2013,09,10,15,42,20.80
2013,09,10,15,43,20.80
2013,09,10,15,44,20.80
2013,09,10,15,45,20.80
2013,09,10,15,46,20.70
2013,09,10,15,47,20.60
2013,09,10,15,48,20.60
2013,09,10,15,49,20.60
2013,09,10,15,50,20.50
2013,09,10,15,51,20.50
2013,09,10,15,52,20.40
2013,09,10,15,53,20.40
2013,09,10,15,54,20.40
2013,09,10,15,55,20.50
2013,09,10,15,56,20.50
2013,09,10,15,57,20.50
2013,09,10,15,58,20.60
2013,09,10,15,59,20.60
2013,09,10,16,00,20.60
2013,09,10,16,01,20.60
2013,09,10,16,02,20.70
2013,09,10,16,03,20.70
2013,09,10,16,04,20.70
2013,09,10,16,05,20.70
2013,09,10,16,06,20.70
2013,09,10,16,07,20.70
2013,09,10,16,08,20.70
2013,09,10,16,09,20.70
2013,09,10,16,10,20.70
2013,09,10,16,11,20.70
2013,09,10,16,12,20.70
2013,09,10,16,13,20.70
2013,09,10,16,14,20.70
2013,09,10,16,15,20.70
2013,09,10,16,16,20.70
2013,09,10,16,17,20.70
2013,09,10,16,18,20.70
2013,09,10,16,19,20.80
2013,09,10,16,20,20.80
2013,09,10,16,21,20.80
2013,09,10,16,22,20.80
2013,09,10,16,23,20.80
2013,09,10,16,24,20.80
2013,09,10,16,25,20.80
2013,09,10,16,26,20.80
2013,09,10,16,27,20.80
2013,09,10,16,28,20.80
2013,09,10,16,29,20.80
2013,09,10,16,30,20.80
2013,09,10,16,31,20.70
2013,09,10,16,32,20.70
2013,09,10,16,33,20.70
2013,09,10,16,34,20.60
2013,09,10,16,35,20.60
2013,09,10,16,36,20.60
2013,09,10,16,37,20.60
2013,09,10,16,38,20.60
2013,09,10,16,39,20.60
2013,09,10,16,40,20.60
2013,09,10,16,41,20.60
2013,09,10,16,42,20.70
2013,09,10,16,43,20.60
2013,09,10,16,44,20.60
2013,09,10,16,45,20.60
2013,09,10,16,46,20.60
2013,09,10,16,47,20.60
2013,09,10,16,48,20.70
2013,09,10,16,49,20.70
2013,09,10,16,50,20.70
2013,09,10,16,51,20.70
2013,09,10,16,52,20.80
2013,09,10,16,53,20.80
2013,09,10,16,54,20.80
2013,09,10,16,55,20.90
2013,09,10,16,56,20.90
2013,09,10,16,57,21.00
2013,09,10,16,58,21.00
2013,09,10,16,59,21.10
2013,09,10,17,00,21.20
2013,09,10,17,01,21.20
2013,09,10,17,02,21.20
2013,09,10,17,03,21.10
2013,09,10,17,04,21.10
2013,09,10,17,05,21.10
2013,09,10,17,06,21.20
2013,09,10,17,07,21.20
2013,09,10,17,08,21.20
2013,09,10,17,09,21.20
2013,09,10,17,10,21.20
2013,09,10,17,11,21.10
2013,09,10,17,12,21.10
2013,09,10,17,13,21.00
2013,09,10,17,14,21.00
2013,09,10,17,15,21.00
2013,09,10,17,16,21.10
2013,09,10,17,17,21.10
2013,09,10,17,18,21.10
2013,09,10,17,19,21.10